[[{"header":{"parameterUnit":"m.s-1","parameterCategory":1,"la1":30.2991,"la2":30.254,"lo1":-89.0895,"lo2":-89.0444,"dy":0.0017,"dx":0.0017,"nx":28,"ny":28,"refTime":"2025-09-01T09:00:00:Z","depth":0,"parameterNumber":2,"parameterNumberName":"U-component_of_WINDS"},"data":[0,0,0,0,0,0,0,0,0,0,0,0,0,0,0,0,0,0,0,0,0,0,0,0,0,0,0,0,0,0,0,0,0,0,0,0,0,0,0,0,0,0,0,0,0,0,0,0,0,0,0,0,0,0,0,0,0,0,-1.4096,-1.4097,0,-1.4133,-1.4134,-1.4134,-1.4104,-1.4103,-1.4101,-1.41,-1.4139,-1.4142,-1.4144,0,0,0,0,0,0,0,0,0,0,0,0,0,-1.4,-1.4002,-1.4096,-1.4097,-1.4097,-1.4133,-1.4134,-1.4134,-1.4104,-1.4102,-1.4101,-1.4099,-1.4139,-1.4141,-1.4144,0,0,0,0,0,0,0,0,0,0,0,0,0,-1.404,-1.4002,-1.4096,-1.4086,-1.4086,-1.4133,-1.4134,-1.4134,-1.4104,-1.4102,-1.4101,-1.4099,-1.4138,-1.4141,-1.4144,-1.4204,0,0,-1.4155,-1.4156,0,0,0,0,0,0,0,0,-1.4038,-1.4043,-1.4087,-1.4087,-1.4087,-1.4112,-1.4114,-1.4158,-1.4105,-1.4097,-1.41,-1.4098,-1.4132,-1.4136,-1.4147,-1.4206,-1.4207,-1.4155,-1.4157,-1.4158,-1.4159,0,0,0,0,0,0,0,-1.4035,-1.4042,-1.4111,-1.4088,-1.4088,-1.408,-1.4084,-1.4122,-1.4125,-1.4098,-1.4096,-1.41,-1.4131,-1.4144,-1.4148,-1.4208,-1.4155,-1.4158,-1.416,-1.4161,-1.4316,-1.4318,0,0,0,0,0,0,-1.4033,-1.404,-1.411,-1.4112,-1.4057,-1.4084,-1.4088,-1.4106,-1.4125,-1.4126,-1.4102,-1.4099,-1.4139,-1.4144,-1.4149,-1.4219,-1.4158,-1.4162,-1.4164,-1.4314,-1.4317,-1.4319,0,0,0,0,0,0,-1.4031,-1.404,-1.4108,-1.4075,-1.4083,-1.4087,-1.4108,-1.4108,-1.412,-1.4128,-1.4128,-1.4114,-1.4138,-1.4144,-1.419,-1.422,-1.4163,-1.4166,-1.4312,-1.4315,-1.4318,-1.436,0,0,0,0,0,0,-1.4028,-1.4039,-1.4061,-1.4076,-1.4085,-1.4149,-1.411,-1.411,-1.4126,-1.4122,-1.4139,-1.414,-1.4137,-1.4185,-1.4193,-1.4224,-1.4169,-1.4309,-1.4313,-1.4317,-1.4356,-1.4364,-1.4371,0,0,0,0,0,-1.4025,-1.4072,-1.4063,-1.4071,-1.4113,-1.4151,-1.4156,-1.415,-1.4128,-1.4151,-1.4156,-1.414,-1.4215,-1.419,-1.4199,-1.4231,-1.4307,-1.4312,-1.4317,-1.4353,-1.4363,-1.4371,0,0,0,0,0,0,-1.4062,-1.4074,-1.4064,-1.4117,-1.4133,-1.4145,-1.4174,-1.4161,-1.4184,-1.418,-1.4172,-1.4177,-1.4225,-1.4232,-1.4204,-1.4289,-1.4258,-1.4264,-1.4282,-1.4292,-1.4299,-1.4296,-1.4172,0,0,0,0,0,-1.4076,-1.4105,-1.4114,-1.4161,-1.4169,-1.417,-1.4186,-1.418,-1.4197,-1.4203,-1.4212,-1.4229,-1.4256,-1.4274,-1.43,-1.4357,-1.436,-1.4383,-1.4391,-1.4397,-1.4403,-1.4433,-1.4443,-1.4334,-1.4334,-1.4334,0,0,-1.4107,-1.4117,-1.4135,-1.4168,-1.418,-1.421,-1.4176,-1.421,-1.4232,-1.4209,-1.4252,-1.4259,-1.4277,-1.4329,-1.4352,-1.4336,-1.4434,-1.4403,-1.4408,-1.4411,-1.4439,-1.4449,-1.4459,-1.4338,-1.4337,-1.4337,0,0,-1.4177,-1.4187,-1.4227,-1.4239,-1.4256,-1.4257,-1.4266,-1.428,-1.4284,-1.4327,-1.431,-1.4337,-1.4384,-1.4398,-1.4411,-1.4485,-1.4471,-1.4494,-1.4534,-1.4563,-1.4572,-1.4579,-1.4605,-1.4615,-1.4499,-1.45,-1.45,0,-1.4212,-1.4256,-1.4249,-1.4283,-1.4298,-1.4277,-1.4317,-1.4329,-1.4355,-1.4366,-1.4348,-1.4407,-1.4418,-1.4472,-1.449,-1.4501,-1.4512,-1.4492,-1.4571,-1.4579,-1.4586,-1.461,-1.462,-1.4502,-1.4502,-1.4502,-1.4501,0,-1.4299,-1.433,-1.4359,-1.4384,-1.4402,-1.4439,-1.4437,-1.4456,-1.4449,-1.4451,-1.4495,-1.4507,-1.4535,-1.4547,-1.4541,-1.46,-1.459,-1.4572,-1.454,-1.4599,-1.4622,-1.4631,-1.4506,-1.4505,-1.4504,-1.4504,0,0,-1.4394,-1.4413,-1.4424,-1.4434,-1.4452,-1.4476,-1.4511,-1.4538,-1.4554,-1.4572,-1.4602,-1.4643,-1.4625,-1.464,-1.4635,-1.4661,-1.4718,-1.4639,-1.464,-1.4653,-1.4784,-1.4798,-1.4809,-1.4709,-1.4711,-1.4712,-1.4783,0,-1.4465,-1.4527,-1.452,-1.4579,-1.4607,-1.4588,-1.4619,-1.4633,-1.4636,-1.4661,-1.4664,-1.4692,-1.4668,-1.4677,-1.4701,-1.4706,-1.4745,-1.4701,-1.4737,-1.4738,-1.4733,-1.4821,-1.4836,-1.4902,-1.4792,-1.4793,-1.4795,0,-1.4556,-1.4576,-1.4638,-1.465,-1.4661,-1.469,-1.4713,-1.4736,-1.4752,-1.4752,-1.4768,-1.4758,-1.4794,-1.4762,-1.4811,-1.4782,-1.4796,-1.4801,-1.4803,-1.4806,-1.477,-1.4827,-1.4923,-1.4933,-1.4809,-1.4808,-1.4807,0,-1.4619,-1.4662,-1.4704,-1.4713,-1.4729,-1.4749,-1.4756,-1.477,-1.4786,-1.4806,-1.4816,-1.4841,-1.4854,-1.4874,-1.487,-1.4847,-1.4921,-1.4888,-1.4922,-1.4922,-1.4939,-1.4938,-1.5039,-1.4948,-1.4948,-1.4948,-1.4948,0,-1.4698,-1.4737,-1.4732,-1.4758,-1.48,-1.4792,-1.4835,-1.484,-1.4852,-1.4879,-1.4863,-1.4889,-1.4883,-1.4908,-1.4906,-1.4947,-1.4953,-1.4955,-1.4954,-1.4956,-1.4956,-1.4965,-1.4961,-1.495,-1.495,-1.4949,-1.4949,0,-1.4776,-1.4775,-1.4819,-1.483,-1.4833,-1.4864,-1.4873,-1.4898,-1.4899,-1.4933,-1.494,-1.4942,-1.4971,-1.4969,-1.5003,-1.5001,-1.5052,-1.5045,-1.5046,-1.5045,-1.5079,-1.5076,-1.5189,-1.5204,-1.5104,-1.5105,-1.5105,0,-1.4827,-1.4856,-1.487,-1.4886,-1.4894,-1.4921,-1.4937,-1.493,-1.4947,-1.4967,-1.4989,-1.5016,-1.5038,-1.5085,-1.5089,-1.5114,-1.5108,-1.5146,-1.5112,-1.5114,-1.5109,-1.5107,-1.511,-1.5153,-1.5155,-1.5155,-1.5156,0,-1.4918,-1.4916,-1.4939,-1.4961,-1.498,-1.4998,-1.5014,-1.5029,-1.5023,-1.5044,-1.5072,-1.5089,-1.5122,-1.5149,-1.5173,-1.5181,-1.5168,-1.5167,-1.5176,-1.5179,-1.5178,-1.5179,-1.5065,-1.5164,-1.5164,-1.5163,-1.5163,-1.5162,-1.4984,-1.5009,-1.5022,-1.5048,-1.5059,-1.5074,-1.5097,-1.51,-1.5124,-1.515,-1.5145,-1.5177,-1.5191,-1.5221,-1.5232,-1.5257,-1.5243,-1.5257,-1.526,-1.5263,-1.5267,-1.5174,-1.5261,-1.5261,-1.5261,-1.5261,-1.526,0,-1.5074,-1.5081,-1.5105,-1.5127,-1.5148,-1.5133,-1.5149,-1.5168,-1.5196,-1.521,-1.5231,-1.5264,-1.529,-1.5296,-1.5321,-1.534,-1.5335,-1.5347,-1.5346,-1.5348,-1.5278,-1.5267,-1.5351,-1.5351,-1.5351,-1.5351,-1.5351,-1.5351,-1.5123,-1.5164,-1.5162,-1.5208,-1.5215,-1.5246,-1.5257,-1.527,-1.5281,-1.5319,-1.534,-1.5343,-1.5354,-1.538,-1.5403,-1.5404,-1.5414,-1.5429,-1.5427,-1.5362,-1.5353,-1.5344,-1.5334,-1.5431,-1.5431,-1.5495,-1.5496,-1.5496]},{"header":{"parameterUnit":"m.s-1","parameterCategory":1,"la1":30.2991,"la2":30.254,"lo1":-89.0895,"lo2":-89.0444,"dy":0.0017,"dx":0.0017,"nx":28,"ny":28,"refTime":"2025-09-01T09:00:00:Z","depth":0,"parameterNumber":3,"parameterNumberName":"V-component_of_WINDS"},"data":[0,0,0,0,0,0,0,0,0,0,0,0,0,0,0,0,0,0,0,0,0,0,0,0,0,0,0,0,0,0,0,0,0,0,0,0,0,0,0,0,0,0,0,0,0,0,0,0,0,0,0,0,0,0,0,0,0,0,2.4068,2.4068,0,2.4073,2.4073,2.4074,2.4028,2.4027,2.4026,2.4024,2.403,2.4031,2.4033,0,0,0,0,0,0,0,0,0,0,0,0,0,2.4017,2.4019,2.4068,2.4068,2.4068,2.4073,2.4073,2.4074,2.4028,2.4027,2.4025,2.4024,2.4029,2.4031,2.4033,0,0,0,0,0,0,0,0,0,0,0,0,0,2.4033,2.4019,2.4068,2.4046,2.4044,2.4073,2.4073,2.4074,2.4029,2.4027,2.4025,2.4023,2.4029,2.4031,2.4033,2.4083,0,0,2.4039,2.404,0,0,0,0,0,0,0,0,2.4032,2.4035,2.4049,2.4048,2.4046,2.4048,2.4058,2.4077,2.4029,2.4035,2.4024,2.4022,2.4038,2.4039,2.4044,2.4083,2.4084,2.4039,2.404,2.4041,2.4042,0,0,0,0,0,0,0,2.4031,2.4034,2.407,2.405,2.4047,2.4036,2.4036,2.4061,2.4047,2.4034,2.4031,2.4032,2.4036,2.4042,2.4044,2.4084,2.4039,2.4041,2.4042,2.4043,2.4163,2.4165,0,0,0,0,0,0,2.4033,2.4034,2.407,2.407,2.4034,2.4038,2.4038,2.4049,2.4046,2.4044,2.4034,2.403,2.404,2.4041,2.4044,2.4101,2.4041,2.4043,2.4044,2.4161,2.4163,2.4166,0,0,0,0,0,0,2.4032,2.4037,2.407,2.4051,2.4054,2.4041,2.4054,2.405,2.4056,2.4046,2.4043,2.4042,2.4038,2.4041,2.4073,2.41,2.4044,2.4046,2.4159,2.4162,2.4165,2.4217,0,0,0,0,0,0,2.4031,2.4037,2.4056,2.4052,2.4056,2.41,2.4055,2.4052,2.406,2.4055,2.4053,2.4051,2.4037,2.4071,2.4075,2.4102,2.4047,2.4156,2.416,2.4164,2.4212,2.4221,2.4228,0,0,0,0,0,2.4029,2.4071,2.4057,2.4062,2.4079,2.4101,2.4103,2.4086,2.4062,2.4081,2.4074,2.4051,2.4097,2.4074,2.4079,2.4107,2.4154,2.4159,2.4163,2.4209,2.4219,2.4228,0,0,0,0,0,0,2.4078,2.407,2.4054,2.4096,2.41,2.4094,2.4117,2.4098,2.4108,2.4103,2.4081,2.4081,2.4117,2.4116,2.409,2.4155,2.4121,2.4127,2.4154,2.4164,2.4172,2.4171,2.4049,0,0,0,0,0,2.4094,2.4113,2.4104,2.4142,2.4144,2.413,2.4139,2.4126,2.4128,2.413,2.4125,2.4129,2.4144,2.4154,2.4168,2.4212,2.421,2.4234,2.4242,2.4249,2.4253,2.4275,2.4285,2.418,2.418,2.418,0,0,2.4127,2.4124,2.4137,2.4151,2.4153,2.4172,2.4132,2.4154,2.4168,2.4133,2.4163,2.416,2.4162,2.4201,2.4218,2.4201,2.4282,2.4254,2.426,2.4261,2.4281,2.4291,2.4299,2.4183,2.4183,2.4182,0,0,2.4195,2.4196,2.4226,2.4228,2.423,2.4221,2.4228,2.4225,2.4221,2.4251,2.4225,2.4241,2.4268,2.427,2.4275,2.4343,2.4322,2.4349,2.439,2.4411,2.442,2.4427,2.445,2.4458,2.4354,2.4354,2.4354,0,2.4235,2.4263,2.4244,2.4268,2.4274,2.4244,2.4273,2.4276,2.4283,2.4288,2.4269,2.4301,2.4301,2.4338,2.4355,2.436,2.4367,2.4348,2.442,2.4427,2.4433,2.4455,2.4464,2.4357,2.4356,2.4356,2.4356,0,2.4312,2.4332,2.4356,2.4362,2.4371,2.4398,2.4383,2.4395,2.438,2.4372,2.4402,2.4401,2.4412,2.4421,2.4407,2.4456,2.4445,2.4424,2.439,2.4447,2.4467,2.4475,2.4361,2.436,2.4359,2.4358,0,0,2.4411,2.4406,2.4415,2.4417,2.4417,2.4432,2.4457,2.4468,2.4478,2.4484,2.4503,2.4526,2.4506,2.4511,2.4497,2.4517,2.4569,2.4492,2.4492,2.4505,2.4621,2.4637,2.4647,2.4556,2.4557,2.4559,2.4621,0,2.4477,2.4519,2.4502,2.4546,2.4563,2.4533,2.4555,2.4557,2.4551,2.4564,2.4557,2.4573,2.4546,2.4548,2.4566,2.4559,2.4592,2.4555,2.4573,2.4574,2.4571,2.4657,2.4673,2.4732,2.4629,2.463,2.4631,0,2.4559,2.4567,2.4612,2.4607,2.4614,2.4634,2.4642,2.4655,2.4657,2.465,2.4656,2.4638,2.4662,2.4629,2.4661,2.4636,2.4642,2.464,2.4642,2.4641,2.4605,2.4658,2.475,2.4759,2.4643,2.4642,2.4641,0,2.4625,2.4647,2.4676,2.4679,2.4675,2.4689,2.4688,2.4688,2.4695,2.4702,2.4707,2.4717,2.4723,2.4731,2.4716,2.4693,2.4749,2.4715,2.4744,2.4744,2.4755,2.4755,2.4849,2.4763,2.4763,2.4763,2.4762,0,2.4698,2.4727,2.4705,2.4723,2.4754,2.4734,2.4765,2.4761,2.476,2.4776,2.4752,2.4768,2.4748,2.4762,2.475,2.4777,2.478,2.4775,2.4772,2.4777,2.4777,2.4779,2.4774,2.4765,2.4764,2.4764,2.4763,0,2.4777,2.4764,2.4793,2.4787,2.4786,2.4808,2.4802,2.4818,2.481,2.4831,2.4834,2.4821,2.4836,2.4822,2.4837,2.4829,2.4864,2.4856,2.4864,2.4861,2.4889,2.4886,2.4987,2.4999,2.4907,2.4908,2.4908,0,2.4824,2.4845,2.484,2.4849,2.4849,2.4864,2.4871,2.4853,2.4861,2.4864,2.4879,2.4892,2.49,2.4925,2.4917,2.4928,2.4918,2.4953,2.4919,2.4923,2.4916,2.4915,2.4916,2.4959,2.496,2.4961,2.4962,0,2.4909,2.4901,2.4912,2.492,2.4929,2.4935,2.494,2.4948,2.4929,2.494,2.4954,2.4961,2.4975,2.4987,2.4995,2.4994,2.4974,2.4972,2.4979,2.4983,2.4986,2.4983,2.488,2.497,2.4969,2.4968,2.4968,2.4968,2.4971,2.4988,2.4986,2.4999,2.5,2.5004,2.5019,2.5012,2.5023,2.5033,2.5022,2.5039,2.5039,2.5047,2.5048,2.5061,2.5047,2.5057,2.5059,2.5062,2.5065,2.4986,2.5063,2.5063,2.5062,2.5062,2.5062,0,2.5053,2.5051,2.5063,2.5069,2.5078,2.5059,2.5063,2.5072,2.5087,2.5089,2.5098,2.5114,2.5126,2.5118,2.5128,2.514,2.5131,2.5143,2.5141,2.5141,2.5078,2.5071,2.515,2.515,2.515,2.515,2.515,2.515,2.5097,2.5123,2.5115,2.5141,2.5138,2.5155,2.5158,2.5161,2.5162,2.5181,2.519,2.5185,2.5183,2.5192,2.5202,2.52,2.5204,2.5219,2.5213,2.5154,2.5145,2.5137,2.513,2.522,2.522,2.5274,2.5274,2.5275]}]]